Location: Central Coast
(33.3208°S, 151.2336°E)
Time: 20:13:17
(UTC+10:00)

Vanguard 1 Rocket - All Passes

Search period start: 22 April 2018 00:00
Search period end: 02 May 2018 00:00
Orbit: 654 x 4223 km, 34.3° (Epoch: 21 April)

Date Brightness Start Highest point End Pass type
(mag) Time Alt. Az. Time Alt. Az. Time Alt. Az.
22 Apr - 00:06:21 10° WSW 00:24:10 78° NNW 00:50:43 10° ENE visible
22 Apr - 02:35:26 10° WSW 02:56:18 45° NW 03:19:10 10° NNE visible
22 Apr - 05:16:07 10° WNW 05:26:04 14° NW 05:35:36 10° NNW visible
22 Apr - 18:05:31 10° NW 18:12:12 47° NE 18:24:43 10° ESE visible
22 Apr - 20:29:00 10° W 20:38:59 90° S 20:59:21 10° E visible
22 Apr - 22:54:35 10° W 23:09:30 87° NNW 23:35:18 10° ENE visible
23 Apr - 01:22:00 10° WSW 01:41:40 58° NNW 02:06:53 10° NE visible
23 Apr - 03:54:59 10° W 04:12:35 25° NW 04:30:11 10° N visible
23 Apr - 16:56:40 10° N 17:01:42 25° NE 17:09:29 10° E daylight
23 Apr - 19:18:31 10° WNW 19:26:35 79° NNE 19:43:10 10° ESE visible
23 Apr - 21:43:18 10° W 21:55:28 87° S 22:18:56 10° E visible
24 Apr - 00:09:36 10° WSW 00:26:56 71° NNW 00:53:06 10° NE visible
24 Apr - 02:39:06 10° W 02:58:35 38° NW 03:20:25 10° NNE visible
24 Apr - 18:08:30 10° NW 18:15:05 57° NNE 18:27:46 10° ESE visible
24 Apr - 20:32:24 10° W 20:42:12 87° S 21:02:17 10° E visible
24 Apr - 22:57:53 10° WSW 23:12:29 82° NNW 23:37:57 10° ENE visible
25 Apr - 01:25:23 10° WSW 01:44:10 50° NW 02:08:37 10° NNE visible
25 Apr - 04:00:30 10° W 04:14:53 19° NW 04:29:34 10° NNW visible
25 Apr - 16:59:08 10° NNW 17:04:23 33° NE 17:12:59 10° E daylight
25 Apr - 19:21:51 10° WNW 19:29:46 86° NNE 19:46:05 10° E visible
25 Apr - 21:46:41 10° W 21:58:38 90° E 22:21:47 10° ENE visible
26 Apr - 00:12:54 10° WSW 00:29:40 63° NNW 00:55:13 10° NE visible
26 Apr - 02:43:11 10° W 03:00:56 30° NW 03:21:08 10° N visible
26 Apr - 15:51:15 10° NNE 15:54:12 14° NE 15:57:52 10° E daylight
26 Apr - 18:11:39 10° WNW 18:18:07 69° NNE 18:30:46 10° ESE visible
26 Apr - 20:35:49 10° W 20:45:28 86° S 21:05:14 10° E visible
26 Apr - 23:01:12 10° WSW 23:15:26 75° NNW 23:40:25 10° ENE visible
27 Apr - 01:28:58 10° W 01:46:42 42° NW 02:09:57 10° NNE visible
27 Apr - 04:08:26 10° WNW 04:17:23 13° NW 04:26:34 10° NNW visible
27 Apr - 17:01:56 10° NW 17:07:14 43° NE 17:16:17 10° E daylight
27 Apr - 19:25:14 10° W 19:33:01 88° S 19:49:03 10° E visible
27 Apr - 21:50:02 10° W 22:01:44 85° NNW 22:24:32 10° ENE visible
28 Apr - 00:16:17 10° WSW 00:32:24 55° NNW 00:57:01 10° NE visible
28 Apr - 02:47:56 10° W 03:03:26 23° NW 03:21:05 10° N visible
28 Apr - 15:53:04 10° N 15:56:55 21° NE 16:02:07 10° E daylight
28 Apr - 18:14:56 10° WNW 18:21:17 79° NNE 18:33:45 10° ESE visible
28 Apr - 20:39:13 10° W 20:48:42 87° S 21:08:10 10° E visible
28 Apr - 23:04:32 10° WSW 23:18:21 67° NNW 23:42:37 10° NE visible
29 Apr - 01:32:50 10° W 01:49:18 34° NW 02:10:50 10° NNE visible
29 Apr - 17:04:57 10° NW 17:10:14 55° NNE 17:19:27 10° ESE daylight
29 Apr - 19:28:39 10° W 19:36:19 85° S 19:52:02 10° E visible
29 Apr - 21:53:22 10° WSW 22:04:49 79° NNW 22:27:07 10° ENE visible
30 Apr - 00:19:48 10° W 00:35:08 46° NNW 00:58:27 10° NNE visible
30 Apr - 02:53:55 10° WNW 03:06:05 17° NW 03:19:44 10° NNW visible
30 Apr - 15:55:31 10° NNW 15:59:45 29° NE 16:05:48 10° E daylight
30 Apr - 18:18:18 10° WNW 18:24:33 88° NNE 18:36:46 10° E visible
30 Apr - 20:42:37 10° W 20:51:55 89° NNW 21:11:01 10° ENE visible
30 Apr - 23:07:56 10° W 23:21:15 58° NNW 23:44:33 10° NE visible
01 May - 01:37:10 10° W 01:51:59 27° NW 02:11:05 10° N visible
01 May - 14:47:39 10° NNE 14:49:31 12° NE 14:51:33 10° ENE daylight
01 May - 17:08:08 10° WNW 17:13:22 68° NNE 17:22:34 10° ESE daylight
01 May - 19:32:04 10° W 19:39:37 85° S 19:55:03 10° E visible
01 May - 21:56:44 10° WSW 22:07:53 71° NNW 22:29:29 10° ENE visible
